When you browse on this site, cookies collect data to enhance your experience and personalize the content and advertising you see.
Visit our Privacy Policy to learn more. By continuing to use the site, you agree to this use of cookies and data.
  • En España
  • Lista de países
  • Para 7 días
  • Temperatura del agua
  • El tiempo en el mapa
  • Informadores
  • user-avatar
    Iniciar sesión

    Tiempo cada hora Recife

    Hoy, 24 Febrero, Lunes

    Tiempo Temperatura Precipitaciones Viento Presión Humedad
    00:00 +29°C° 0 mm 3 mps 758 mmHg 80%
    01:00 +29°C° 0 mm 3 mps 758 mmHg 81%
    02:00 +29°C° 0.1 mm 3 mps 757 mmHg 81%
    03:00 +28°C° 0.1 mm 3 mps 757 mmHg 82%
    04:00 +28°C° 0.1 mm 3 mps 757 mmHg 82%
    05:00 +28°C° 0.1 mm 3 mps 757 mmHg 82%
    06:00 +28°C° 0.1 mm 3 mps 757 mmHg 82%
    07:00 +28°C° 0.1 mm 3 mps 758 mmHg 83%
    08:00 +29°C° 0.1 mm 4 mps 758 mmHg 78%
    09:00 +30°C° 0.1 mm 4 mps 758 mmHg 73%
    10:00 +32°C° 0.1 mm 5 mps 758 mmHg 68%
    11:00 +33°C° 0 mm 5 mps 758 mmHg 65%
    12:00 +34°C° 0 mm 5 mps 757 mmHg 62%
    13:00 +34°C° 0 mm 5 mps 757 mmHg 60%
    14:00 +34°C° 0 mm 5 mps 756 mmHg 60%
    15:00 +34°C° 0 mm 5 mps 756 mmHg 61%
    16:00 +33°C° 0 mm 5 mps 756 mmHg 62%
    17:00 +32°C° 0 mm 4 mps 756 mmHg 66%
    18:00 +30°C° 0 mm 4 mps 756 mmHg 71%
    19:00 +29°C° 0 mm 4 mps 756 mmHg 75%
    20:00 +29°C° 0 mm 4 mps 757 mmHg 78%
    21:00 +29°C° 0 mm 3 mps 757 mmHg 80%
    22:00 +28°C° 0 mm 3 mps 757 mmHg 82%
    23:00 +28°C° 0.1 mm 3 mps 757 mmHg 82%

    Mañana, 25 Febrero, Martes

    Tiempo Temperatura Precipitaciones Viento Presión Humedad
    00:00 +28°C° 0.1 mm 3 mps 757 mmHg 82%
    01:00 +28°C° 0.1 mm 3 mps 757 mmHg 83%
    02:00 +28°C° 0 mm 3 mps 757 mmHg 83%
    03:00 +28°C° 0 mm 3 mps 757 mmHg 83%
    04:00 +28°C° 0 mm 2 mps 756 mmHg 84%
    05:00 +28°C° 0.1 mm 3 mps 756 mmHg 84%
    06:00 +28°C° 0.1 mm 3 mps 757 mmHg 83%
    07:00 +28°C° 0.1 mm 3 mps 757 mmHg 83%
    08:00 +29°C° 0.1 mm 3 mps 757 mmHg 76%
    09:00 +30°C° 0.1 mm 3 mps 757 mmHg 69%
    10:00 +33°C° 0.1 mm 3 mps 758 mmHg 62%
    11:00 +33°C° 0 mm 3 mps 757 mmHg 59%
    12:00 +34°C° 0 mm 4 mps 757 mmHg 55%
    13:00 +35°C° 0 mm 4 mps 757 mmHg 51%
    14:00 +34°C° 0 mm 4 mps 756 mmHg 54%
    15:00 +34°C° 0 mm 4 mps 756 mmHg 57%
    16:00 +34°C° 0 mm 5 mps 755 mmHg 60%
    17:00 +33°C° 0 mm 4 mps 755 mmHg 65%
    18:00 +32°C° 0 mm 4 mps 755 mmHg 70%
    19:00 +30°C° 0 mm 4 mps 755 mmHg 74%
    20:00 +29°C° 0 mm 4 mps 756 mmHg 76%
    21:00 +29°C° 0 mm 4 mps 756 mmHg 77%
    22:00 +29°C° 0 mm 3 mps 757 mmHg 79%
    23:00 +28°C° 0 mm 3 mps 757 mmHg 80%

    Pasado mañana, 26 Febrero, Miércoles

    Tiempo Temperatura Precipitaciones Viento Presión Humedad
    00:00 +28°C° 0 mm 3 mps 757 mmHg 81%
    01:00 +28°C° 0 mm 3 mps 756 mmHg 82%
    02:00 +28°C° 0 mm 3 mps 756 mmHg 82%
    03:00 +28°C° 0 mm 3 mps 756 mmHg 83%
    04:00 +27°C° 0 mm 3 mps 756 mmHg 83%
    05:00 +28°C° 0 mm 3 mps 756 mmHg 82%
    06:00 +28°C° 0 mm 3 mps 756 mmHg 82%
    07:00 +28°C° 0 mm 3 mps 756 mmHg 81%
    08:00 +29°C° 0 mm 3 mps 756 mmHg 75%
    09:00 +30°C° 0 mm 3 mps 756 mmHg 68%
    10:00 +33°C° 0 mm 4 mps 757 mmHg 62%
    11:00 +33°C° 0 mm 3 mps 756 mmHg 58%
    12:00 +34°C° 0 mm 3 mps 756 mmHg 55%
    13:00 +35°C° 0 mm 3 mps 756 mmHg 51%
    14:00 +34°C° 0 mm 3 mps 755 mmHg 52%
    15:00 +34°C° 0 mm 4 mps 755 mmHg 54%
    16:00 +34°C° 0 mm 4 mps 754 mmHg 55%
    17:00 +33°C° 0 mm 4 mps 754 mmHg 62%
    18:00 +32°C° 0 mm 4 mps 755 mmHg 68%
    19:00 +29°C° 0 mm 4 mps 755 mmHg 74%
    20:00 +29°C° 0 mm 4 mps 755 mmHg 77%
    21:00 +29°C° 0 mm 4 mps 756 mmHg 79%
    22:00 +29°C° 0 mm 4 mps 756 mmHg 82%
    23:00 +28°C° 0 mm 4 mps 756 mmHg 83%

    27 Febrero, Jueves

    Tiempo Temperatura Precipitaciones Viento Presión Humedad
    00:00 +28°C° 0 mm 3 mps 756 mmHg 84%
    01:00 +28°C° 0 mm 3 mps 755 mmHg 85%
    02:00 +28°C° 0.1 mm 3 mps 755 mmHg 85%
    03:00 +28°C° 0.1 mm 2 mps 755 mmHg 84%
    04:00 +28°C° 0.1 mm 2 mps 755 mmHg 84%
    05:00 +28°C° 0 mm 2 mps 756 mmHg 83%
    06:00 +28°C° 0 mm 2 mps 756 mmHg 82%
    07:00 +28°C° 0 mm 2 mps 756 mmHg 81%
    08:00 +29°C° 0 mm 3 mps 757 mmHg 74%
    09:00 +31°C° 0 mm 3 mps 757 mmHg 67%
    10:00 +33°C° 0 mm 3 mps 757 mmHg 60%
    11:00 +34°C° 0 mm 3 mps 757 mmHg 57%
    12:00 +34°C° 0 mm 3 mps 757 mmHg 54%
    13:00 +35°C° 0 mm 3 mps 756 mmHg 51%
    14:00 +35°C° 0 mm 4 mps 756 mmHg 53%
    15:00 +34°C° 0 mm 4 mps 755 mmHg 55%
    16:00 +34°C° 0 mm 4 mps 755 mmHg 57%
    17:00 +33°C° 0 mm 4 mps 755 mmHg 63%
    18:00 +32°C° 0 mm 4 mps 755 mmHg 69%
    19:00 +29°C° 0 mm 4 mps 755 mmHg 76%
    20:00 +29°C° 0 mm 4 mps 756 mmHg 76%
    21:00 +29°C° 0 mm 4 mps 756 mmHg 77%
    22:00 +29°C° 0 mm 3 mps 757 mmHg 78%
    23:00 +29°C° 0 mm 3 mps 757 mmHg 80%

    28 Febrero, Viernes

    Tiempo Temperatura Precipitaciones Viento Presión Humedad
    00:00 +29°C° 0 mm 2 mps 756 mmHg 81%
    01:00 +29°C° 0 mm 2 mps 756 mmHg 82%
    02:00 +29°C° 0 mm 1 mps 756 mmHg 83%
    03:00 +28°C° 0 mm 1 mps 756 mmHg 83%
    04:00 +28°C° 0 mm 1 mps 756 mmHg 83%
    05:00 +28°C° 0.3 mm 1 mps 756 mmHg 83%
    06:00 +29°C° 0.3 mm 1 mps 756 mmHg 82%
    07:00 +29°C° 0.3 mm 1 mps 757 mmHg 82%
    08:00 +30°C° 0.2 mm 1 mps 757 mmHg 75%
    09:00 +31°C° 0.2 mm 2 mps 757 mmHg 68%
    10:00 +34°C° 0.2 mm 2 mps 758 mmHg 60%
    11:00 +34°C° 0.1 mm 3 mps 757 mmHg 59%
    12:00 +35°C° 0.1 mm 3 mps 757 mmHg 57%
    13:00 +35°C° 0.1 mm 4 mps 757 mmHg 55%
    14:00 +35°C° 0.1 mm 4 mps 756 mmHg 57%
    15:00 +34°C° 0.1 mm 5 mps 756 mmHg 59%
    16:00 +34°C° 0.1 mm 5 mps 755 mmHg 61%
    17:00 +33°C° 0 mm 5 mps 755 mmHg 67%
    18:00 +32°C° 0 mm 4 mps 756 mmHg 72%
    19:00 +30°C° 0 mm 4 mps 756 mmHg 78%
    20:00 +29°C° 0 mm 3 mps 756 mmHg 78%
    21:00 +29°C° 0 mm 3 mps 757 mmHg 78%
    22:00 +29°C° 0 mm 2 mps 757 mmHg 78%
    23:00 +29°C° 0.2 mm 2 mps 757 mmHg 79%

    29 Febrero, Sábado

    Tiempo Temperatura Precipitaciones Viento Presión Humedad
    00:00 +29°C° 0.2 mm 2 mps 757 mmHg 80%
    01:00 +29°C° 0.2 mm 1 mps 757 mmHg 82%
    02:00 +29°C° 1.1 mm 2 mps 756 mmHg 82%
    03:00 +28°C° 1.1 mm 2 mps 756 mmHg 82%
    04:00 +28°C° 1.1 mm 2 mps 756 mmHg 83%
    05:00 +28°C° 0.4 mm 2 mps 756 mmHg 83%
    06:00 +28°C° 0.4 mm 2 mps 756 mmHg 83%
    07:00 +28°C° 0.4 mm 3 mps 757 mmHg 83%
    08:00 +30°C° 0.4 mm 3 mps 757 mmHg 77%
    09:00 +31°C° 0.4 mm 3 mps 758 mmHg 70%
    10:00 +33°C° 0.4 mm 3 mps 758 mmHg 63%
    11:00 +34°C° 0.1 mm 3 mps 758 mmHg 60%
    12:00 +34°C° 0.1 mm 3 mps 758 mmHg 57%
    13:00 +35°C° 0.1 mm 3 mps 757 mmHg 54%
    14:00 +35°C° 0 mm 3 mps 757 mmHg 55%
    15:00 +34°C° 0 mm 3 mps 756 mmHg 56%
    16:00 +34°C° 0 mm 4 mps 755 mmHg 57%
    17:00 +33°C° 0 mm 4 mps 755 mmHg 62%
    18:00 +31°C° 0 mm 3 mps 755 mmHg 67%
    19:00 +30°C° 0 mm 3 mps 755 mmHg 72%
    20:00 +30°C° 0 mm 3 mps 756 mmHg 75%
    21:00 +29°C° 0 mm 3 mps 756 mmHg 77%
    22:00 +29°C° 0 mm 3 mps 757 mmHg 80%
    23:00 +29°C° 0.1 mm 2 mps 757 mmHg 80%
    Mostrar más